Terug naar catalogus

COSMOS 887 DEB

ActiefPO
NORAD 27881·DEBRIS·🇷🇺 Russia

Gelanceerd Dec 28, 1976 vanaf Plesetsk Cosmodrome

Loading…

Volgende Passages (komende 24 uur)

TLE

VersSource: Space-Track

Epoch: Sep 14, 2026, 13:04 UTC

1 27881U 76128C   26257.54460269  .00000592  00000-0  48328-3 0  9992
2 27881  82.9368  31.0295 0041861 125.4035   3.4349 13.87672325267309

Volg COSMOS 887 DEB in realtime met AllMySat

Download on the App Store